Hourly Data Report for February 25, 2003

SHERBROOKE A
QUEBEC

45°26'00.000" N
71°41'00.000" W
241.40 m
7028124
71610
YSC

Download Data

Hourly Data (February 2003)
Hourly Data Report for February 25, 2003
TIME
LST
Temp Definition
°C
Dew Point Definition
°C
Rel Hum Definition
%
Precip. Amount Definition
mm

Wind Dir Definition
10's deg

Wind Spd Definition
km/h
Visibility Definition
km
Stn Press Definition
kPa
Hmdx Definition


Wind Chill Definition


Weather Definition


00:00 -14.2 -19.3 65   29 7 15.0 98.71   -19  
01:00 -14.6 -19.4 67   25 11 6.4 98.76   -21 Snow
02:00 -14.9 -19.9 66   25 17 15.0 98.77   -23  
03:00 -15.2 -19.4 70   25 11 6.4 98.79   -22 Snow
04:00 -15.4 -20.3 66   25 15 15.0 98.83   -23  
05:00 -15.7 -20.5 67   26 20 15.0 98.88   -25  
06:00 -16.3 -21.0 67   26 30 8.0 98.98   -28  
07:00 -16.4 -21.3 66   25 22 9.7 99.06   -26  
08:00 -16.5 -22.3 61   26 22 16.1 99.17   -27 Mostly Cloudy
09:00 -16.4 -22.1 61   27 28 1.6 99.23   -28 Blowing Snow
10:00 -16.7 -21.9 64   27 30 2.4 99.31   -28 Snow Showers
11:00 -16.3 -22.5 59   27 28 2.4 99.38   -27 Snow Showers
12:00 -16.7 -22.4 61   27 35 2.4 99.41   -29 Snow Showers,Blowing Snow
13:00 -16.3 -22.3 60   27 26 2.4 99.45   -27 Snow Showers
14:00 -16.7 -23.3 57   27 32 9.7 99.50   -29 Snow Showers
15:00 -16.8 -22.2 63   27 28 0.6 99.58   -28 Moderate Snow Showers
16:00 -16.9 -23.2 58   28 32 1.2 99.65   -29 Snow Showers
17:00 -17.2 -25.9 47   27 33 24.1 99.72   -29 Mainly Clear
18:00 -18.1 -27.3 44   28 17 15.0 99.83   -27  
19:00 -19.6 -28.0 47   27 11 15.0 99.92   -27  
20:00 -20.5 -28.1 51   25 9 15.0 99.97   -27  
21:00 -23.1 -29.4 56     0 15.0 100.01      
22:00 -26.2 -31.7 60     0 15.0 100.04      
23:00 -26.2 -31.8 59   20 6 15.0 100.04   -32  

Notes on Data Quality.

Legend

  • E = Estimated
  • M = Missing
  • NA = Not Available*
  • [empty] = Indicates an unobserved value
Date modified: